Location: Unspecified
(41.1637°N, 24.2901°E)
Time: 01:43:36
(UTC+01:00)

ISS - Pass Details

Date: 10 November 2025
Orbit: 414 x 420 km, 51.6° (Epoch: 18 November)

Event Time Altitude Azimuth Distance (km) Brightness Sun altitude
Rises 17:23:03 0° 184° (S) 2,335 0.2 -14.3°
Reaches altitude 10° 17:26:24 10° 147° (SSE) 1,479 -1.2 -14.9°
Enters shadow 17:26:37 10° 143° (SE) 1,456 -1.3 -15.0°
